owner,sensor,date,latitude,longitude,vertical_datum,sea_water_practical_salinity,qcFlag 
NERRS,ioos:station:NOAA.NERRS:gndbcwq:1,2014-04-01T00:00:00Z,30.3836,-88.4364,0.21,1.9,1111122 
NERRS,ioos:station:NOAA.NERRS:gndbcwq:1,2014-04-01T01:00:00Z,30.3836,-88.4364,0.21,1.8,1111122 
NERRS,ioos:station:NOAA.NERRS:gndbcwq:1,2014-04-01T02:00:00Z,30.3836,-88.4364,0.29,3.0,1111122 
NERRS,ioos:station:NOAA.NERRS:gndbcwq:1,2014-04-01T03:00:00Z,30.3836,-88.4364,0.34,2.7,1111122 
NERRS,ioos:station:NOAA.NERRS:gndbcwq:1,2014-04-01T04:00:00Z,30.3836,-88.4364,0.37,3.4,1111122 
NERRS,ioos:station:NOAA.NERRS:gndbcwq:1,2014-04-01T05:00:00Z,30.3836,-88.4364,0.38,2.7,1111122 
NERRS,ioos:station:NOAA.NERRS:gndbcwq:1,2014-04-01T06:00:00Z,30.3836,-88.4364,0.41,3.5,1111122 
NERRS,ioos:station:NOAA.NERRS:gndbcwq:1,2014-04-01T07:00:00Z,30.3836,-88.4364,0.45,4.5,1111122 
NERRS,ioos:station:NOAA.NERRS:gndbcwq:1,2014-04-01T08:00:00Z,30.3836,-88.4364,0.47,4.1,1111122 
NERRS,ioos:station:NOAA.NERRS:gndbcwq:1,2014-04-01T09:00:00Z,30.3836,-88.4364,0.47,2.2,1111122 
NERRS,ioos:station:NOAA.NERRS:gndbcwq:1,2014-04-01T10:00:00Z,30.3836,-88.4364,0.49,13.2,1111122 
NERRS,ioos:station:NOAA.NERRS:gndbcwq:1,2014-04-01T11:00:00Z,30.3836,-88.4364,0.5,16.6,1111122 
NERRS,ioos:station:NOAA.NERRS:gndbcwq:1,2014-04-01T12:00:00Z,30.3836,-88.4364,0.55,17.4,1111122 
NERRS,ioos:station:NOAA.NERRS:gndbcwq:1,2014-04-01T13:00:00Z,30.3836,-88.4364,0.62,16.7,1111122 
NERRS,ioos:station:NOAA.NERRS:gndbcwq:1,2014-04-01T14:00:00Z,30.3836,-88.4364,0.68,18.4,1111122 
NERRS,ioos:station:NOAA.NERRS:gndbcwq:1,2014-04-01T15:00:00Z,30.3836,-88.4364,0.72,18.7,1111122 
NERRS,ioos:station:NOAA.NERRS:gndbcwq:1,2014-04-01T16:00:00Z,30.3836,-88.4364,0.75,18.2,1111122 
NERRS,ioos:station:NOAA.NERRS:gndbcwq:1,2014-04-01T17:00:00Z,30.3836,-88.4364,0.73,16.9,1111122 
NERRS,ioos:station:NOAA.NERRS:gndbcwq:1,2014-04-01T18:00:00Z,30.3836,-88.4364,0.68,13.3,1111122 
NERRS,ioos:station:NOAA.NERRS:gndbcwq:1,2014-04-01T19:00:00Z,30.3836,-88.4364,0.67,17.2,1111122 
NERRS,ioos:station:NOAA.NERRS:gndbcwq:1,2014-04-01T20:00:00Z,30.3836,-88.4364,0.67,13.3,1111122 
NERRS,ioos:station:NOAA.NERRS:gndbcwq:1,2014-04-01T21:00:00Z,30.3836,-88.4364,0.61,9.2,1111122 
NERRS,ioos:station:NOAA.NERRS:gndbcwq:1,2014-04-01T22:00:00Z,30.3836,-88.4364,0.49,5.3,1111122 
NERRS,ioos:station:NOAA.NERRS:gndbcwq:1,2014-04-01T23:00:00Z,30.3836,-88.4364,0.38,4.3,1111122 
NERRS,ioos:station:NOAA.NERRS:gndbcwq:1,2014-04-02T00:00:00Z,30.3836,-88.4364,0.29,4.5,1111122 
NERRS,ioos:station:NOAA.NERRS:gndbcwq:1,2014-04-02T01:00:00Z,30.3836,-88.4364,0.28,4.6,1111122 
NERRS,ioos:station:NOAA.NERRS:gndbcwq:1,2014-04-02T02:00:00Z,30.3836,-88.4364,0.29,3.7,1111122 
NERRS,ioos:station:NOAA.NERRS:gndbcwq:1,2014-04-02T03:00:00Z,30.3836,-88.4364,0.33,5.6,1111122 
NERRS,ioos:station:NOAA.NERRS:gndbcwq:1,2014-04-02T04:00:00Z,30.3836,-88.4364,0.35,4.6,1111122 
NERRS,ioos:station:NOAA.NERRS:gndbcwq:1,2014-04-02T05:00:00Z,30.3836,-88.4364,0.38,5.3,1111122 
NERRS,ioos:station:NOAA.NERRS:gndbcwq:1,2014-04-02T06:00:00Z,30.3836,-88.4364,0.39,5.3,1111122 
NERRS,ioos:station:NOAA.NERRS:gndbcwq:1,2014-04-02T07:00:00Z,30.3836,-88.4364,0.43,6.0,1111122 
NERRS,ioos:station:NOAA.NERRS:gndbcwq:1,2014-04-02T08:00:00Z,30.3836,-88.4364,0.49,6.0,1111122 
NERRS,ioos:station:NOAA.NERRS:gndbcwq:1,2014-04-02T09:00:00Z,30.3836,-88.4364,0.54,6.0,1111122 
NERRS,ioos:station:NOAA.NERRS:gndbcwq:1,2014-04-02T10:00:00Z,30.3836,-88.4364,0.54,7.0,1111122 
NERRS,ioos:station:NOAA.NERRS:gndbcwq:1,2014-04-02T11:00:00Z,30.3836,-88.4364,0.55,6.8,1111122 
NERRS,ioos:station:NOAA.NERRS:gndbcwq:1,2014-04-02T12:00:00Z,30.3836,-88.4364,0.58,7.5,1111122 
NERRS,ioos:station:NOAA.NERRS:gndbcwq:1,2014-04-02T13:00:00Z,30.3836,-88.4364,0.64,8.0,1111122 
NERRS,ioos:station:NOAA.NERRS:gndbcwq:1,2014-04-02T14:00:00Z,30.3836,-88.4364,0.7,9.5,1111122 
NERRS,ioos:station:NOAA.NERRS:gndbcwq:1,2014-04-02T15:00:00Z,30.3836,-88.4364,0.75,12.8,1111122 
NERRS,ioos:station:NOAA.NERRS:gndbcwq:1,2014-04-02T16:00:00Z,30.3836,-88.4364,0.78,13.4,1111122 
NERRS,ioos:station:NOAA.NERRS:gndbcwq:1,2014-04-02T17:00:00Z,30.3836,-88.4364,0.78,14.8,1111122 
NERRS,ioos:station:NOAA.NERRS:gndbcwq:1,2014-04-02T18:00:00Z,30.3836,-88.4364,0.75,13.5,1111122 
NERRS,ioos:station:NOAA.NERRS:gndbcwq:1,2014-04-02T19:00:00Z,30.3836,-88.4364,0.71,13.2,1111122 
NERRS,ioos:station:NOAA.NERRS:gndbcwq:1,2014-04-02T20:00:00Z,30.3836,-88.4364,0.67,10.6,1111122 
NERRS,ioos:station:NOAA.NERRS:gndbcwq:1,2014-04-02T21:00:00Z,30.3836,-88.4364,0.62,7.1,1111122 
NERRS,ioos:station:NOAA.NERRS:gndbcwq:1,2014-04-02T22:00:00Z,30.3836,-88.4364,0.55,6.6,1111122 
NERRS,ioos:station:NOAA.NERRS:gndbcwq:1,2014-04-02T23:00:00Z,30.3836,-88.4364,0.46,5.8,1111122 
NERRS,ioos:station:NOAA.NERRS:gndbcwq:1,2014-04-03T00:00:00Z,30.3836,-88.4364,0.37,4.6,1111122 
NERRS,ioos:station:NOAA.NERRS:gndbcwq:1,2014-04-03T01:00:00Z,30.3836,-88.4364,0.3,4.0,1111122 
NERRS,ioos:station:NOAA.NERRS:gndbcwq:1,2014-04-03T02:00:00Z,30.3836,-88.4364,0.28,3.9,1111122 
NERRS,ioos:station:NOAA.NERRS:gndbcwq:1,2014-04-03T03:00:00Z,30.3836,-88.4364,0.3,3.5,1111122 
NERRS,ioos:station:NOAA.NERRS:gndbcwq:1,2014-04-03T04:00:00Z,30.3836,-88.4364,0.35,3.9,1111122 
NERRS,ioos:station:NOAA.NERRS:gndbcwq:1,2014-04-03T05:00:00Z,30.3836,-88.4364,0.37,4.4,1111122 
NERRS,ioos:station:NOAA.NERRS:gndbcwq:1,2014-04-03T06:00:00Z,30.3836,-88.4364,0.4,4.2,1111122 
NERRS,ioos:station:NOAA.NERRS:gndbcwq:1,2014-04-03T07:00:00Z,30.3836,-88.4364,0.42,4.7,1111122 
NERRS,ioos:station:NOAA.NERRS:gndbcwq:1,2014-04-03T08:00:00Z,30.3836,-88.4364,0.44,5.3,1111122 
NERRS,ioos:station:NOAA.NERRS:gndbcwq:1,2014-04-03T09:00:00Z,30.3836,-88.4364,0.47,6.0,1111122 
NERRS,ioos:station:NOAA.NERRS:gndbcwq:1,2014-04-03T10:00:00Z,30.3836,-88.4364,0.51,6.5,1111122 
NERRS,ioos:station:NOAA.NERRS:gndbcwq:1,2014-04-03T11:00:00Z,30.3836,-88.4364,0.53,6.4,1111122 
NERRS,ioos:station:NOAA.NERRS:gndbcwq:1,2014-04-03T12:00:00Z,30.3836,-88.4364,0.59,7.9,1111122 
NERRS,ioos:station:NOAA.NERRS:gndbcwq:1,2014-04-03T13:00:00Z,30.3836,-88.4364,0.63,8.2,1111122 
NERRS,ioos:station:NOAA.NERRS:gndbcwq:1,2014-04-03T14:00:00Z,30.3836,-88.4364,0.66,8.5,1111122 
NERRS,ioos:station:NOAA.NERRS:gndbcwq:1,2014-04-03T15:00:00Z,30.3836,-88.4364,0.7,9.7,1111122 
NERRS,ioos:station:NOAA.NERRS:gndbcwq:1,2014-04-03T16:00:00Z,30.3836,-88.4364,0.75,12.1,1111122 
NERRS,ioos:station:NOAA.NERRS:gndbcwq:1,2014-04-03T17:00:00Z,30.3836,-88.4364,0.78,13.6,1111122 
NERRS,ioos:station:NOAA.NERRS:gndbcwq:1,2014-04-03T18:00:00Z,30.3836,-88.4364,0.78,14.7,1111122 
NERRS,ioos:station:NOAA.NERRS:gndbcwq:1,2014-04-03T19:00:00Z,30.3836,-88.4364,0.75,14.1,1111122 
NERRS,ioos:station:NOAA.NERRS:gndbcwq:1,2014-04-03T20:00:00Z,30.3836,-88.4364,0.71,13.1,1111122 
NERRS,ioos:station:NOAA.NERRS:gndbcwq:1,2014-04-03T21:00:00Z,30.3836,-88.4364,0.66,12.2,1111122 
NERRS,ioos:station:NOAA.NERRS:gndbcwq:1,2014-04-03T22:00:00Z,30.3836,-88.4364,0.6,10.3,1111122 
NERRS,ioos:station:NOAA.NERRS:gndbcwq:1,2014-04-03T23:00:00Z,30.3836,-88.4364,0.55,7.7,1111122 
NERRS,ioos:station:NOAA.NERRS:gndbcwq:1,2014-04-04T00:00:00Z,30.3836,-88.4364,0.47,6.2,1111122 
NERRS,ioos:station:NOAA.NERRS:gndbcwq:1,2014-04-04T01:00:00Z,30.3836,-88.4364,0.41,5.5,1111122 
NERRS,ioos:station:NOAA.NERRS:gndbcwq:1,2014-04-04T02:00:00Z,30.3836,-88.4364,0.36,4.6,1111122 
NERRS,ioos:station:NOAA.NERRS:gndbcwq:1,2014-04-04T03:00:00Z,30.3836,-88.4364,0.36,4.3,1111122 
NERRS,ioos:station:NOAA.NERRS:gndbcwq:1,2014-04-04T04:00:00Z,30.3836,-88.4364,0.37,4.5,1111122 
NERRS,ioos:station:NOAA.NERRS:gndbcwq:1,2014-04-04T05:00:00Z,30.3836,-88.4364,0.41,5.0,1111122 
NERRS,ioos:station:NOAA.NERRS:gndbcwq:1,2014-04-04T06:00:00Z,30.3836,-88.4364,0.44,5.2,1111122 
NERRS,ioos:station:NOAA.NERRS:gndbcwq:1,2014-04-04T07:00:00Z,30.3836,-88.4364,0.46,5.3,1111122 
NERRS,ioos:station:NOAA.NERRS:gndbcwq:1,2014-04-04T08:00:00Z,30.3836,-88.4364,0.45,4.7,1111122 
NERRS,ioos:station:NOAA.NERRS:gndbcwq:1,2014-04-04T09:00:00Z,30.3836,-88.4364,0.47,6.2,1111122 
NERRS,ioos:station:NOAA.NERRS:gndbcwq:1,2014-04-04T10:00:00Z,30.3836,-88.4364,0.52,7.1,1111122 
NERRS,ioos:station:NOAA.NERRS:gndbcwq:1,2014-04-04T11:00:00Z,30.3836,-88.4364,0.54,7.1,1111122 
NERRS,ioos:station:NOAA.NERRS:gndbcwq:1,2014-04-04T12:00:00Z,30.3836,-88.4364,0.58,7.8,1111122 
NERRS,ioos:station:NOAA.NERRS:gndbcwq:1,2014-04-04T13:00:00Z,30.3836,-88.4364,0.62,8.1,1111122 
NERRS,ioos:station:NOAA.NERRS:gndbcwq:1,2014-04-04T14:00:00Z,30.3836,-88.4364,0.67,9.2,1111122 
NERRS,ioos:station:NOAA.NERRS:gndbcwq:1,2014-04-04T15:00:00Z,30.3836,-88.4364,0.73,10.1,1111122 
NERRS,ioos:station:NOAA.NERRS:gndbcwq:1,2014-04-04T16:00:00Z,30.3836,-88.4364,0.77,13.1,1111122 
NERRS,ioos:station:NOAA.NERRS:gndbcwq:1,2014-04-04T17:00:00Z,30.3836,-88.4364,0.8,14.1,1111122 
NERRS,ioos:station:NOAA.NERRS:gndbcwq:1,2014-04-04T18:00:00Z,30.3836,-88.4364,0.81,15.5,1111122 
NERRS,ioos:station:NOAA.NERRS:gndbcwq:1,2014-04-04T19:00:00Z,30.3836,-88.4364,0.79,15.7,1111122 
NERRS,ioos:station:NOAA.NERRS:gndbcwq:1,2014-04-04T20:00:00Z,30.3836,-88.4364,0.74,15.7,1111122 
NERRS,ioos:station:NOAA.NERRS:gndbcwq:1,2014-04-04T21:00:00Z,30.3836,-88.4364,0.74,15.3,1111122 
NERRS,ioos:station:NOAA.NERRS:gndbcwq:1,2014-04-04T22:00:00Z,30.3836,-88.4364,0.72,14.3,1111122 
NERRS,ioos:station:NOAA.NERRS:gndbcwq:1,2014-04-04T23:00:00Z,30.3836,-88.4364,0.68,11.8,1111122 
NERRS,ioos:station:NOAA.NERRS:gndbcwq:1,2014-04-05T00:00:00Z,30.3836,-88.4364,0.63,8.6,1111122 
NERRS,ioos:station:NOAA.NERRS:gndbcwq:1,2014-04-05T01:00:00Z,30.3836,-88.4364,0.56,7.1,1111122 
NERRS,ioos:station:NOAA.NERRS:gndbcwq:1,2014-04-05T02:00:00Z,30.3836,-88.4364,0.43,6.2,1111122 
NERRS,ioos:station:NOAA.NERRS:gndbcwq:1,2014-04-05T03:00:00Z,30.3836,-88.4364,0.34,5.4,1111122 
NERRS,ioos:station:NOAA.NERRS:gndbcwq:1,2014-04-05T04:00:00Z,30.3836,-88.4364,0.34,4.7,1111122 
NERRS,ioos:station:NOAA.NERRS:gndbcwq:1,2014-04-05T05:00:00Z,30.3836,-88.4364,0.37,5.2,1111122 
NERRS,ioos:station:NOAA.NERRS:gndbcwq:1,2014-04-05T06:00:00Z,30.3836,-88.4364,0.35,4.4,1111122 
NERRS,ioos:station:NOAA.NERRS:gndbcwq:1,2014-04-05T07:00:00Z,30.3836,-88.4364,0.33,4.2,1111122 
NERRS,ioos:station:NOAA.NERRS:gndbcwq:1,2014-04-05T08:00:00Z,30.3836,-88.4364,0.33,4.4,1111122 
NERRS,ioos:station:NOAA.NERRS:gndbcwq:1,2014-04-05T09:00:00Z,30.3836,-88.4364,0.36,5.3,1111122 
NERRS,ioos:station:NOAA.NERRS:gndbcwq:1,2014-04-05T10:00:00Z,30.3836,-88.4364,0.33,3.9,1111122 
NERRS,ioos:station:NOAA.NERRS:gndbcwq:1,2014-04-05T11:00:00Z,30.3836,-88.4364,0.31,5.8,1111122 
NERRS,ioos:station:NOAA.NERRS:gndbcwq:1,2014-04-05T12:00:00Z,30.3836,-88.4364,0.37,8.0,1111122 
NERRS,ioos:station:NOAA.NERRS:gndbcwq:1,2014-04-05T13:00:00Z,30.3836,-88.4364,0.44,10.0,1111122 
NERRS,ioos:station:NOAA.NERRS:gndbcwq:1,2014-04-05T14:00:00Z,30.3836,-88.4364,0.46,12.8,1111122 
NERRS,ioos:station:NOAA.NERRS:gndbcwq:1,2014-04-05T15:00:00Z,30.3836,-88.4364,0.53,11.4,1111122 
NERRS,ioos:station:NOAA.NERRS:gndbcwq:1,2014-04-05T16:00:00Z,30.3836,-88.4364,0.6,12.7,1111122 
NERRS,ioos:station:NOAA.NERRS:gndbcwq:1,2014-04-05T17:00:00Z,30.3836,-88.4364,0.65,11.4,1111122 
NERRS,ioos:station:NOAA.NERRS:gndbcwq:1,2014-04-05T18:00:00Z,30.3836,-88.4364,0.68,11.6,1111122 
NERRS,ioos:station:NOAA.NERRS:gndbcwq:1,2014-04-05T19:00:00Z,30.3836,-88.4364,0.73,12.3,1111122 
NERRS,ioos:station:NOAA.NERRS:gndbcwq:1,2014-04-05T20:00:00Z,30.3836,-88.4364,0.73,14.1,1111122 
NERRS,ioos:station:NOAA.NERRS:gndbcwq:1,2014-04-05T21:00:00Z,30.3836,-88.4364,0.71,13.5,1111122 
NERRS,ioos:station:NOAA.NERRS:gndbcwq:1,2014-04-05T22:00:00Z,30.3836,-88.4364,0.66,13.7,1111122 
NERRS,ioos:station:NOAA.NERRS:gndbcwq:1,2014-04-05T23:00:00Z,30.3836,-88.4364,0.62,11.0,1111122 
NERRS,ioos:station:NOAA.NERRS:gndbcwq:1,2014-04-06T00:00:00Z,30.3836,-88.4364,0.57,10.2,1111122 
NERRS,ioos:station:NOAA.NERRS:gndbcwq:1,2014-04-06T01:00:00Z,30.3836,-88.4364,0.5,6.5,1111122 
NERRS,ioos:station:NOAA.NERRS:gndbcwq:1,2014-04-06T02:00:00Z,30.3836,-88.4364,0.45,5.8,1111122 
NERRS,ioos:station:NOAA.NERRS:gndbcwq:1,2014-04-06T03:00:00Z,30.3836,-88.4364,0.37,5.3,1111122 
NERRS,ioos:station:NOAA.NERRS:gndbcwq:1,2014-04-06T04:00:00Z,30.3836,-88.4364,0.34,5.0,1111122 
NERRS,ioos:station:NOAA.NERRS:gndbcwq:1,2014-04-06T05:00:00Z,30.3836,-88.4364,0.33,4.7,1111122 
NERRS,ioos:station:NOAA.NERRS:gndbcwq:1,2014-04-06T06:00:00Z,30.3836,-88.4364,0.32,6.5,1111122 
NERRS,ioos:station:NOAA.NERRS:gndbcwq:1,2014-04-06T07:00:00Z,30.3836,-88.4364,0.33,9.8,1111122 
NERRS,ioos:station:NOAA.NERRS:gndbcwq:1,2014-04-06T08:00:00Z,30.3836,-88.4364,0.35,9.6,1111122 
NERRS,ioos:station:NOAA.NERRS:gndbcwq:1,2014-04-06T10:00:00Z,30.3836,-88.4364,0.36,10.3,1111122 
NERRS,ioos:station:NOAA.NERRS:gndbcwq:1,2014-04-06T12:00:00Z,30.3836,-88.4364,0.47,9.1,1111122 
NERRS,ioos:station:NOAA.NERRS:gndbcwq:1,2014-04-06T13:00:00Z,30.3836,-88.4364,0.5,8.9,1111122 
NERRS,ioos:station:NOAA.NERRS:gndbcwq:1,2014-04-06T14:00:00Z,30.3836,-88.4364,0.42,5.9,1111122 
NERRS,ioos:station:NOAA.NERRS:gndbcwq:1,2014-04-06T15:00:00Z,30.3836,-88.4364,0.47,8.5,1111122 
NERRS,ioos:station:NOAA.NERRS:gndbcwq:1,2014-04-06T16:00:00Z,30.3836,-88.4364,0.53,10.4,1111122 
NERRS,ioos:station:NOAA.NERRS:gndbcwq:1,2014-04-06T17:00:00Z,30.3836,-88.4364,0.52,11.1,1111122 
NERRS,ioos:station:NOAA.NERRS:gndbcwq:1,2014-04-06T18:00:00Z,30.3836,-88.4364,0.55,12.2,1111122 
NERRS,ioos:station:NOAA.NERRS:gndbcwq:1,2014-04-06T19:00:00Z,30.3836,-88.4364,0.61,10.4,1111122 
NERRS,ioos:station:NOAA.NERRS:gndbcwq:1,2014-04-06T20:00:00Z,30.3836,-88.4364,0.63,11.6,1111122 
NERRS,ioos:station:NOAA.NERRS:gndbcwq:1,2014-04-06T21:00:00Z,30.3836,-88.4364,0.64,12.2,1111122 
NERRS,ioos:station:NOAA.NERRS:gndbcwq:1,2014-04-06T22:00:00Z,30.3836,-88.4364,0.65,12.5,1111122 
NERRS,ioos:station:NOAA.NERRS:gndbcwq:1,2014-04-06T23:00:00Z,30.3836,-88.4364,0.64,12.9,1111122 
NERRS,ioos:station:NOAA.NERRS:gndbcwq:1,2014-04-07T00:00:00Z,30.3836,-88.4364,0.64,12.9,1111122 
NERRS,ioos:station:NOAA.NERRS:gndbcwq:1,2014-04-07T01:00:00Z,30.3836,-88.4364,0.61,11.2,1111122 
NERRS,ioos:station:NOAA.NERRS:gndbcwq:1,2014-04-07T02:00:00Z,30.3836,-88.4364,0.6,10.5,1111122 
NERRS,ioos:station:NOAA.NERRS:gndbcwq:1,2014-04-07T03:00:00Z,30.3836,-88.4364,0.57,10.1,1111122 
NERRS,ioos:station:NOAA.NERRS:gndbcwq:1,2014-04-07T04:00:00Z,30.3836,-88.4364,0.53,9.5,1111122 
NERRS,ioos:station:NOAA.NERRS:gndbcwq:1,2014-04-07T05:00:00Z,30.3836,-88.4364,0.51,9.3,1111122 
NERRS,ioos:station:NOAA.NERRS:gndbcwq:1,2014-04-07T06:00:00Z,30.3836,-88.4364,0.49,8.9,1111122 
NERRS,ioos:station:NOAA.NERRS:gndbcwq:1,2014-04-07T07:00:00Z,30.3836,-88.4364,0.44,7.6,1111122 
NERRS,ioos:station:NOAA.NERRS:gndbcwq:1,2014-04-07T08:00:00Z,30.3836,-88.4364,0.47,9.2,1111122 
NERRS,ioos:station:NOAA.NERRS:gndbcwq:1,2014-04-07T09:00:00Z,30.3836,-88.4364,0.47,9.5,1111122 
NERRS,ioos:station:NOAA.NERRS:gndbcwq:1,2014-04-07T10:00:00Z,30.3836,-88.4364,0.47,8.8,1111122 
NERRS,ioos:station:NOAA.NERRS:gndbcwq:1,2014-04-07T11:00:00Z,30.3836,-88.4364,0.52,9.5,1111122 
NERRS,ioos:station:NOAA.NERRS:gndbcwq:1,2014-04-07T12:00:00Z,30.3836,-88.4364,0.57,9.7,1111122 
NERRS,ioos:station:NOAA.NERRS:gndbcwq:1,2014-04-07T13:00:00Z,30.3836,-88.4364,0.6,10.6,1111122 
NERRS,ioos:station:NOAA.NERRS:gndbcwq:1,2014-04-07T14:00:00Z,30.3836,-88.4364,0.66,10.8,1111122 
NERRS,ioos:station:NOAA.NERRS:gndbcwq:1,2014-04-07T15:00:00Z,30.3836,-88.4364,0.65,11.2,1111122 
NERRS,ioos:station:NOAA.NERRS:gndbcwq:1,2014-04-07T16:00:00Z,30.3836,-88.4364,0.58,10.4,1111122 
NERRS,ioos:station:NOAA.NERRS:gndbcwq:1,2014-04-07T17:00:00Z,30.3836,-88.4364,0.58,8.9,1111122 
NERRS,ioos:station:NOAA.NERRS:gndbcwq:1,2014-04-07T18:00:00Z,30.3836,-88.4364,0.6,9.9,1111122 
NERRS,ioos:station:NOAA.NERRS:gndbcwq:1,2014-04-07T19:00:00Z,30.3836,-88.4364,0.65,10.5,1111122 
NERRS,ioos:station:NOAA.NERRS:gndbcwq:1,2014-04-07T20:00:00Z,30.3836,-88.4364,0.68,11.0,1111122 
NERRS,ioos:station:NOAA.NERRS:gndbcwq:1,2014-04-07T21:00:00Z,30.3836,-88.4364,0.63,10.0,1111122 
NERRS,ioos:station:NOAA.NERRS:gndbcwq:1,2014-04-07T22:00:00Z,30.3836,-88.4364,0.58,10.1,1111122 
NERRS,ioos:station:NOAA.NERRS:gndbcwq:1,2014-04-07T23:00:00Z,30.3836,-88.4364,0.56,9.3,1111122 
NERRS,ioos:station:NOAA.NERRS:gndbcwq:1,2014-04-08T00:00:00Z,30.3836,-88.4364,0.57,8.6,1111122 
NERRS,ioos:station:NOAA.NERRS:gndbcwq:1,2014-04-08T01:00:00Z,30.3836,-88.4364,0.52,8.7,1111122 
NERRS,ioos:station:NOAA.NERRS:gndbcwq:1,2014-04-08T02:00:00Z,30.3836,-88.4364,0.47,6.7,1111122 
NERRS,ioos:station:NOAA.NERRS:gndbcwq:1,2014-04-08T03:00:00Z,30.3836,-88.4364,0.44,6.3,1111122 
NERRS,ioos:station:NOAA.NERRS:gndbcwq:1,2014-04-08T04:00:00Z,30.3836,-88.4364,0.38,5.7,1111122 
NERRS,ioos:station:NOAA.NERRS:gndbcwq:1,2014-04-08T05:00:00Z,30.3836,-88.4364,0.32,5.1,1111122 
NERRS,ioos:station:NOAA.NERRS:gndbcwq:1,2014-04-08T06:00:00Z,30.3836,-88.4364,0.23,4.7,1111122 
NERRS,ioos:station:NOAA.NERRS:gndbcwq:1,2014-04-08T07:00:00Z,30.3836,-88.4364,0.17,4.1,1111122 
NERRS,ioos:station:NOAA.NERRS:gndbcwq:1,2014-04-08T08:00:00Z,30.3836,-88.4364,0.16,4.0,1111122 
NERRS,ioos:station:NOAA.NERRS:gndbcwq:1,2014-04-08T09:00:00Z,30.3836,-88.4364,0.18,3.8,1111122 
NERRS,ioos:station:NOAA.NERRS:gndbcwq:1,2014-04-08T10:00:00Z,30.3836,-88.4364,0.26,5.3,1111122 
NERRS,ioos:station:NOAA.NERRS:gndbcwq:1,2014-04-08T11:00:00Z,30.3836,-88.4364,0.34,6.1,1111122 
NERRS,ioos:station:NOAA.NERRS:gndbcwq:1,2014-04-08T12:00:00Z,30.3836,-88.4364,0.41,6.8,1111122 
NERRS,ioos:station:NOAA.NERRS:gndbcwq:1,2014-04-08T13:00:00Z,30.3836,-88.4364,0.45,6.8,1111122 
NERRS,ioos:station:NOAA.NERRS:gndbcwq:1,2014-04-08T14:00:00Z,30.3836,-88.4364,0.46,6.7,1111122 
NERRS,ioos:station:NOAA.NERRS:gndbcwq:1,2014-04-08T15:00:00Z,30.3836,-88.4364,0.52,7.7,1111122 
NERRS,ioos:station:NOAA.NERRS:gndbcwq:1,2014-04-08T16:00:00Z,30.3836,-88.4364,0.57,8.7,1111122 
NERRS,ioos:station:NOAA.NERRS:gndbcwq:1,2014-04-08T17:00:00Z,30.3836,-88.4364,0.59,9.9,1111122 
NERRS,ioos:station:NOAA.NERRS:gndbcwq:1,2014-04-08T18:00:00Z,30.3836,-88.4364,0.56,6.9,1111122 
NERRS,ioos:station:NOAA.NERRS:gndbcwq:1,2014-04-08T19:00:00Z,30.3836,-88.4364,0.53,6.6,1111122 
NERRS,ioos:station:NOAA.NERRS:gndbcwq:1,2014-04-08T20:00:00Z,30.3836,-88.4364,0.56,7.2,1111122 
NERRS,ioos:station:NOAA.NERRS:gndbcwq:1,2014-04-08T21:00:00Z,30.3836,-88.4364,0.62,9.9,1111122 
NERRS,ioos:station:NOAA.NERRS:gndbcwq:1,2014-04-08T22:00:00Z,30.3836,-88.4364,0.62,10.3,1111122 
NERRS,ioos:station:NOAA.NERRS:gndbcwq:1,2014-04-08T23:00:00Z,30.3836,-88.4364,0.55,9.4,1111122 
NERRS,ioos:station:NOAA.NERRS:gndbcwq:1,2014-04-09T00:00:00Z,30.3836,-88.4364,0.56,8.3,1111122 
NERRS,ioos:station:NOAA.NERRS:gndbcwq:1,2014-04-09T01:00:00Z,30.3836,-88.4364,0.54,7.4,1111122 
NERRS,ioos:station:NOAA.NERRS:gndbcwq:1,2014-04-09T02:00:00Z,30.3836,-88.4364,0.4,6.6,1111122 
NERRS,ioos:station:NOAA.NERRS:gndbcwq:1,2014-04-09T03:00:00Z,30.3836,-88.4364,0.32,6.1,1111122 
NERRS,ioos:station:NOAA.NERRS:gndbcwq:1,2014-04-09T04:00:00Z,30.3836,-88.4364,0.27,5.7,1111122 
NERRS,ioos:station:NOAA.NERRS:gndbcwq:1,2014-04-09T05:00:00Z,30.3836,-88.4364,0.17,4.7,1111122 
NERRS,ioos:station:NOAA.NERRS:gndbcwq:1,2014-04-09T06:00:00Z,30.3836,-88.4364,0.16,4.1,1111122 
NERRS,ioos:station:NOAA.NERRS:gndbcwq:1,2014-04-09T07:00:00Z,30.3836,-88.4364,0.12,3.9,1111122 
NERRS,ioos:station:NOAA.NERRS:gndbcwq:1,2014-04-09T08:00:00Z,30.3836,-88.4364,0.12,3.5,1111122 
NERRS,ioos:station:NOAA.NERRS:gndbcwq:1,2014-04-09T09:00:00Z,30.3836,-88.4364,0.1,3.2,1111122 
NERRS,ioos:station:NOAA.NERRS:gndbcwq:1,2014-04-09T10:00:00Z,30.3836,-88.4364,0.1,3.3,1111122 
NERRS,ioos:station:NOAA.NERRS:gndbcwq:1,2014-04-09T11:00:00Z,30.3836,-88.4364,0.14,3.3,1111122 
NERRS,ioos:station:NOAA.NERRS:gndbcwq:1,2014-04-09T12:00:00Z,30.3836,-88.4364,0.15,3.4,1111122 
NERRS,ioos:station:NOAA.NERRS:gndbcwq:1,2014-04-09T13:00:00Z,30.3836,-88.4364,0.13,2.9,1111122 
NERRS,ioos:station:NOAA.NERRS:gndbcwq:1,2014-04-09T14:00:00Z,30.3836,-88.4364,0.16,3.2,1111122 
NERRS,ioos:station:NOAA.NERRS:gndbcwq:1,2014-04-09T15:00:00Z,30.3836,-88.4364,0.25,3.5,1111122 
NERRS,ioos:station:NOAA.NERRS:gndbcwq:1,2014-04-09T16:00:00Z,30.3836,-88.4364,0.29,4.2,1111122 
NERRS,ioos:station:NOAA.NERRS:gndbcwq:1,2014-04-09T17:00:00Z,30.3836,-88.4364,0.3,4.2,1111122 
NERRS,ioos:station:NOAA.NERRS:gndbcwq:1,2014-04-09T18:00:00Z,30.3836,-88.4364,0.28,4.3,1111122 
NERRS,ioos:station:NOAA.NERRS:gndbcwq:1,2014-04-09T19:00:00Z,30.3836,-88.4364,0.3,5.1,1111122 
NERRS,ioos:station:NOAA.NERRS:gndbcwq:1,2014-04-09T21:00:00Z,30.3836,-88.4364,0.4,6.2,1111122 
NERRS,ioos:station:NOAA.NERRS:gndbcwq:1,2014-04-09T22:00:00Z,30.3836,-88.4364,0.4,4.5,1111122 
NERRS,ioos:station:NOAA.NERRS:gndbcwq:1,2014-04-09T23:00:00Z,30.3836,-88.4364,0.42,5.2,1111122 
NERRS,ioos:station:NOAA.NERRS:gndbcwq:1,2014-04-10T00:00:00Z,30.3836,-88.4364,0.4,3.8,1111122 
NERRS,ioos:station:NOAA.NERRS:gndbcwq:1,2014-04-10T01:00:00Z,30.3836,-88.4364,0.38,3.8,1111122 
NERRS,ioos:station:NOAA.NERRS:gndbcwq:1,2014-04-10T02:00:00Z,30.3836,-88.4364,0.37,3.9,1111122 
NERRS,ioos:station:NOAA.NERRS:gndbcwq:1,2014-04-10T03:00:00Z,30.3836,-88.4364,0.34,4.0,1111122 
NERRS,ioos:station:NOAA.NERRS:gndbcwq:1,2014-04-10T04:00:00Z,30.3836,-88.4364,0.32,3.9,1111122 
NERRS,ioos:station:NOAA.NERRS:gndbcwq:1,2014-04-10T05:00:00Z,30.3836,-88.4364,0.29,3.0,1111122 
NERRS,ioos:station:NOAA.NERRS:gndbcwq:1,2014-04-10T06:00:00Z,30.3836,-88.4364,0.24,2.7,1111122 
NERRS,ioos:station:NOAA.NERRS:gndbcwq:1,2014-04-10T07:00:00Z,30.3836,-88.4364,0.2,2.4,1111122 
NERRS,ioos:station:NOAA.NERRS:gndbcwq:1,2014-04-10T08:00:00Z,30.3836,-88.4364,0.18,2.2,1111122 
NERRS,ioos:station:NOAA.NERRS:gndbcwq:1,2014-04-10T09:00:00Z,30.3836,-88.4364,0.17,1.9,1111122 
NERRS,ioos:station:NOAA.NERRS:gndbcwq:1,2014-04-10T10:00:00Z,30.3836,-88.4364,0.18,1.7,1111122 
NERRS,ioos:station:NOAA.NERRS:gndbcwq:1,2014-04-10T11:00:00Z,30.3836,-88.4364,0.19,1.8,1111122 
NERRS,ioos:station:NOAA.NERRS:gndbcwq:1,2014-04-10T12:00:00Z,30.3836,-88.4364,0.2,1.6,1111122 
NERRS,ioos:station:NOAA.NERRS:gndbcwq:1,2014-04-10T13:00:00Z,30.3836,-88.4364,0.24,4.0,1111122 
NERRS,ioos:station:NOAA.NERRS:gndbcwq:1,2014-04-10T14:00:00Z,30.3836,-88.4364,0.3,5.1,1111122 
NERRS,ioos:station:NOAA.NERRS:gndbcwq:1,2014-04-10T15:00:00Z,30.3836,-88.4364,0.34,5.7,1111122 
NERRS,ioos:station:NOAA.NERRS:gndbcwq:1,2014-04-10T16:00:00Z,30.3836,-88.4364,0.39,7.2,1111122 
NERRS,ioos:station:NOAA.NERRS:gndbcwq:1,2014-04-10T17:00:00Z,30.3836,-88.4364,0.39,4.8,1111122 
NERRS,ioos:station:NOAA.NERRS:gndbcwq:1,2014-04-10T18:00:00Z,30.3836,-88.4364,0.38,6.5,1111122 
NERRS,ioos:station:NOAA.NERRS:gndbcwq:1,2014-04-10T19:00:00Z,30.3836,-88.4364,0.39,3.5,1111122 
NERRS,ioos:station:NOAA.NERRS:gndbcwq:1,2014-04-10T20:00:00Z,30.3836,-88.4364,0.42,5.0,1111122 
NERRS,ioos:station:NOAA.NERRS:gndbcwq:1,2014-04-10T21:00:00Z,30.3836,-88.4364,0.42,5.9,1111122 
NERRS,ioos:station:NOAA.NERRS:gndbcwq:1,2014-04-10T22:00:00Z,30.3836,-88.4364,0.42,6.2,1111122 
NERRS,ioos:station:NOAA.NERRS:gndbcwq:1,2014-04-10T23:00:00Z,30.3836,-88.4364,0.44,6.9,1111122 
NERRS,ioos:station:NOAA.NERRS:gndbcwq:1,2014-04-11T00:00:00Z,30.3836,-88.4364,0.45,7.8,1111122 
NERRS,ioos:station:NOAA.NERRS:gndbcwq:1,2014-04-11T01:00:00Z,30.3836,-88.4364,0.44,6.2,1111122 
NERRS,ioos:station:NOAA.NERRS:gndbcwq:1,2014-04-11T02:00:00Z,30.3836,-88.4364,0.45,7.8,1111122 
NERRS,ioos:station:NOAA.NERRS:gndbcwq:1,2014-04-11T03:00:00Z,30.3836,-88.4364,0.47,8.3,1111122 
NERRS,ioos:station:NOAA.NERRS:gndbcwq:1,2014-04-11T04:00:00Z,30.3836,-88.4364,0.49,8.4,1111122 
NERRS,ioos:station:NOAA.NERRS:gndbcwq:1,2014-04-11T05:00:00Z,30.3836,-88.4364,0.49,8.2,1111122 
NERRS,ioos:station:NOAA.NERRS:gndbcwq:1,2014-04-11T06:00:00Z,30.3836,-88.4364,0.46,4.3,1111122 
NERRS,ioos:station:NOAA.NERRS:gndbcwq:1,2014-04-11T07:00:00Z,30.3836,-88.4364,0.4,4.6,1111122 
NERRS,ioos:station:NOAA.NERRS:gndbcwq:1,2014-04-11T08:00:00Z,30.3836,-88.4364,0.38,7.4,1111122 
NERRS,ioos:station:NOAA.NERRS:gndbcwq:1,2014-04-11T09:00:00Z,30.3836,-88.4364,0.39,7.2,1111122 
NERRS,ioos:station:NOAA.NERRS:gndbcwq:1,2014-04-11T10:00:00Z,30.3836,-88.4364,0.43,6.6,1111122 